DELTA 1 DEB, 17024

Orbit data source: Space-Track

DELTA 1 DEB, 17024 is space debris in LEO originally from a launch on Thu, 14 Jul 1977 UTC launched from the Air Force Eastern Test Range (AFETR). Debris objects in space refer to the collection of defunct objects orbiting the Earth. Examples of debris include non-operational satellites, rocket bodies, and fragments generated from explosions, collisions, or faulty payload assembly.

Loading next visibility...
Identifier
17024, 1977-065FW
Orbit
LEO
Country
Flag of USUS
Related business
Manufacturer
Unknown
Mission
Spacecraft
Bus & Motor
Unknown
Mass
Unknown
Launch date (UTC)
1977-07-14 (48 years ago)
Launch vehicle
Unknown
Launch site
Air Force Eastern Test Range (AFETR)
Object type
Payload
Rocket body
Debris
Shape & HBR
Unknown shape, 0.1 m
Radar Cross Section
Small (<0.1 m²)

Expand to show TLE details & history
Last TLE update: 1 day ago

TLE from 1 day ago
0 DELTA 1 DEB
1 17024U 77065FW  25303.61360958 -.00000586  00000-0 -13673-2 0  9993
2 17024  29.4352  45.8834 0856409  47.9962 319.0381 12.36453056528186
Epoch: 2025-10-30T14:43Z
TLE epoch observation values (Epoch: 2025-10-30T14:43:35.867Z)
Latitude
0.00001°
Longitude
145.8141°
Altitude
1,036.892 km
Speed
7.556 km/s
True Right ascension
03h 03m 32s
True Declination
0° 00' 00"
Sunlit
Object was in full shadow at epoch
Visualization orbit readout
Latitude
Unknown
Longitude
Unknown
Altitude
Unknown
Speed
Unknown
Apparent Right ascension
Unknown
Apparent Declination
Unknown
Sunlit
N/A
Visualization observer readout
Local Sidereal Time
14:13:40
Azimuth
Unknown
Elevation
Unknown
Doppler factor
Unknown
Orbital elements
Apogee altitude
2,202.131 km
Perigee altitude
848.42 km
Semi-major axis
7,903.413 km
Eccentricity
0.08564
Inclination
29.4352°
RAAN
45.8834°
Arg. of periapsis
47.9962°
True anomaly
312.0585°
Mean anomaly
319.0381°
Eccentric anomaly
315.60527°
Mean motion
3.08902 °/min
Orbital period
116.54 mins
BSTAR
-0.0013673
Loading maneuver chart data...
Computing Atmospheric mass density...
Loading historical data...
Loading historical data...
Loading historical data...
Loading historical data...
Loading historical data...
Loading historical data...
Loading historical data...

Documentation

Showing up to 5 results
|